This is the latest recevied weather packets stored in our database for station/object K7SKM. If no packets are shown the sender has not sent any weather packets the latest 10 day(s).
| Time | Temp. | Humidity | Pressure | Rain* | Wind** | Luminosity | Snow |
|---|---|---|---|---|---|---|---|
| 1788294117 | 20.56° C | 63% | 1014.9 hPa | 0 mm | - | 81 W/m² | - |
| 1788293812 | 20° C | 64% | 1014.7 hPa | 0 mm | - | 80 W/m² | - |
| 1788293512 | 20° C | 64% | 1014.6 hPa | 0 mm | - | 71 W/m² | - |
| 1788293211 | 20° C | 65% | 1014.8 hPa | 0 mm | - | 77 W/m² | - |
| 1788292907 | 19.44° C | 66% | 1014.8 hPa | 0 mm | - | 93 W/m² | - |
| 1788292604 | 19.44° C | 67% | 1014.8 hPa | 0 mm | - | 104 W/m² | - |
| 1788292298 | 18.89° C | 68% | 1015.1 hPa | 0 mm | - | 73 W/m² | - |
| 1788291994 | 18.89° C | 69% | 1014.8 hPa | 0 mm | - | 62 W/m² | - |
| 1788291689 | 18.89° C | 69% | 1014.9 hPa | 0 mm | - | 63 W/m² | - |
| 1788291379 | 18.89° C | 69% | 1015.1 hPa | 0 mm | - | 74 W/m² | - |
| 1788291078 | 18.89° C | 69% | 1015.1 hPa | 0 mm | - | 79 W/m² | - |
| 1788290774 | 18.89° C | 69% | 1015 hPa | 0 mm | - | 86 W/m² | - |
| 1788290486 | 18.89° C | 68% | 1015.1 hPa | 0 mm | - | 93 W/m² | - |
| 1788290165 | 18.89° C | 68% | 1015 hPa | 0 mm | - | 82 W/m² | - |
| 1788289861 | 18.89° C | 68% | 1015.2 hPa | 0 mm | - | 64 W/m² | - |
| 1788289556 | 18.89° C | 68% | 1015.3 hPa | 0 mm | - | 91 W/m² | - |
| 1788289255 | 18.89° C | 69% | 1015.3 hPa | 0 mm | - | 59 W/m² | - |
| 1788288954 | 18.33° C | 70% | 1015.2 hPa | 0 mm | - | 55 W/m² | - |
| 1788288653 | 18.33° C | 70% | 1015.3 hPa | 0 mm | - | 62 W/m² | - |
| 1788288349 | 18.33° C | 71% | 1015.1 hPa | 0 mm | - | 43 W/m² | - |
| 1788288044 | 18.33° C | 71% | 1015.4 hPa | 0 mm | - | 47 W/m² | - |
| 1788287744 | 18.33° C | 71% | 1015.2 hPa | 0 mm | - | 69 W/m² | - |
| 1788287440 | 18.33° C | 71% | 1015 hPa | 0 mm | - | 64 W/m² | - |
| 1788287136 | 18.33° C | 71% | 1015.4 hPa | 0 mm | - | 57 W/m² | - |
| 1788286835 | 18.33° C | 69% | 1015.2 hPa | 0 mm | - | 63 W/m² | - |
* Rain latest hour (hover to see other rain measurements)
** Current wind speed in m/s (hover to see current wind gust speed)